This is the latest recevied weather packets stored in our database for station/object W5ALL-WX. If no packets are shown the sender has not sent any weather packets the latest 10 day(s).
| Time | Temp. | Humidity | Pressure | Rain* | Wind** | Luminosity | Snow |
|---|---|---|---|---|---|---|---|
| 1777811187 | 8.89° C | 96% | 1019.8 hPa | 0 mm | - | - | - |
| 1777810887 | 8.33° C | 97% | 1019.9 hPa | 0 mm | - | - | - |
| 1777810587 | 8.33° C | 96% | 1019.9 hPa | 0 mm | - | - | - |
| 1777810287 | 8.33° C | 96% | 1019.9 hPa | 0 mm | - | - | - |
| 1777809987 | 8.33° C | 96% | 1020.1 hPa | 0 mm | - | - | - |
| 1777809687 | 8.33° C | 96% | 1020.1 hPa | 0 mm | - | - | - |
| 1777809387 | 8.33° C | 96% | 1020.2 hPa | 0 mm | - | - | - |
| 1777809087 | 8.33° C | 96% | 1020.3 hPa | 0 mm | - | - | - |
| 1777808787 | 8.33° C | 96% | 1020.3 hPa | 0 mm | - | - | - |
| 1777808487 | 8.33° C | 95% | 1020.4 hPa | 0 mm | - | - | - |
| 1777808187 | 8.33° C | 95% | 1020.3 hPa | 0 mm | - | - | - |
| 1777807887 | 7.78° C | 95% | 1020.3 hPa | 0 mm | - | - | - |
| 1777807587 | 7.78° C | 94% | 1020.3 hPa | 0 mm | - | - | - |
| 1777807287 | 7.78° C | 93% | 1020.3 hPa | 0 mm | - | - | - |
| 1777806987 | 7.78° C | 92% | 1020.3 hPa | 0 mm | - | - | - |
| 1777806687 | 7.78° C | 91% | 1020.4 hPa | 0 mm | - | - | - |
| 1777806387 | 8.33° C | 89% | 1020.5 hPa | 0 mm | - | - | - |
| 1777806087 | 8.89° C | 89% | 1020.5 hPa | 0 mm | - | - | - |
| 1777805787 | 8.89° C | 89% | 1020.6 hPa | 0 mm | - | - | - |
| 1777805487 | 9.44° C | 89% | 1020.6 hPa | 0 mm | - | - | - |
| 1777805187 | 9.44° C | 90% | 1020.6 hPa | 0 mm | - | - | - |
| 1777804887 | 9.44° C | 90% | 1020.4 hPa | 0 mm | - | - | - |
| 1777804587 | 9.44° C | 91% | 1020.4 hPa | 0 mm | - | - | - |
| 1777804287 | 8.89° C | 92% | 1020.4 hPa | 0 mm | - | - | - |
| 1777803987 | 8.89° C | 92% | 1020.4 hPa | 0 mm | - | - | - |
* Rain latest hour (hover to see other rain measurements)
** Current wind speed in m/s (hover to see current wind gust speed)